Flag for India Weather past 2 weeks in New Okhla Industrial Development Authority, Uttar Pradesh, India

Now
66 °F

Fog.


Feels Like: 66 °F
Forecast: 58 / 66 °F
Wind: 9 mph from Southeast

Location: New Delhi Palam Airport

Current Time: Mar 1, 2015 at 4:36:29 PM

Latest Report: Mar 1, 2015 at 4:00 PM


Visibility: 1 mi

Pressure: 29.80 "Hg

Humidity: 83%

Dew point: 61 °F

Location of New Okhla Industrial Development AuthorityLocation

Historic Weather in New Okhla Industrial Development Authority — Graph

°F

New Okhla Industrial Development Authority temperature yesterday

Maximum temperature yesterday: 82 °F (at 2:00 PM)
Minimum temperature yesterday: 57 °F (at 5:30 AM)
Average temperature yesterday: 70 °F

Past Weeks' High & Low Weather Summary

 TemperatureHumidityPressure
High84 °F (Feb 18, 3:30 PM)100% (Feb 18, 6:00 AM)30.04 "Hg (Feb 18, 6:00 AM)
Low54 °F (Feb 15, 7:00 AM)16% (Feb 27, 3:00 PM)29.77 "Hg (Feb 14, 3:00 PM)
Average71 °F61%29.90 "Hg
* Reported Feb 14 2:30 PM — Mar 1 3:00 PM, New Okhla Industrial Development Authority, Weather by CustomWeather, © 2015

Note: Actual official high and low records may vary slightly from our data, if they occured in-between our weather recording intervals... More about our weather records

Advertising

New Okhla Industrial Development Authority weather history for previous 24 hours

 ConditionsComfort  
Time TempWeatherWind HumidityBarometerVisibility
3:00 PM
Sun, Mar 1
64 °FFog.9 mph88%29.83 "Hg1 mi
2:30 PM63 °FLight rain. Mostly cloudy.12 mph94%29.83 "Hg1 mi
2:00 PM63 °FLight rain. Mostly cloudy.12 mph94%29.83 "Hg1 mi
1:30 PM63 °FFog.12 mph88%29.83 "Hg1 mi
1:00 PM63 °FLight rain. Mostly cloudy.12 mph88%29.86 "Hg1 mi
12:30 PM63 °FLight rain. Mostly cloudy.12 mph83%29.86 "Hg1 mi
10:30 AM61 °FFog.9 mph94%29.89 "Hg1 mi
10:00 AM61 °FLight rain. Mostly cloudy.13 mph94%29.92 "Hg1 mi
9:30 AM59 °FLight rain. Mostly cloudy.9 mph100%29.92 "Hg1 mi
8:30 AM61 °FLight rain. Mostly cloudy.6 mph94%29.92 "Hg1 mi
7:30 AM61 °FLight rain. Mostly cloudy.14 mph94%29.89 "Hg2 mi
7:00 AM61 °FLight rain. Mostly cloudy.12 mph94%29.89 "Hg2 mi
6:30 AM61 °FLight rain. Mostly cloudy.14 mph94%29.86 "Hg2 mi
6:00 AM63 °FLight rain. Mostly cloudy.12 mph88%29.86 "Hg2 mi
5:30 AM64 °FLight rain. Partly cloudy.17 mph73%29.83 "Hg2 mi
5:00 AM66 °FLight rain. Partly cloudy.16 mph60%29.83 "Hg2 mi
4:30 AM68 °FLight rain. Partly cloudy.13 mph53%29.83 "Hg2 mi
3:30 AM70 °FPassing clouds.13 mph46%29.83 "Hg1 mi
3:00 AM70 °FPassing clouds.10 mph50%29.83 "Hg1 mi
2:30 AM68 °FPassing clouds.6 mph53%29.83 "Hg1 mi
2:00 AM68 °FPassing clouds.6 mph53%29.83 "Hg1 mi
1:30 AM68 °FPassing clouds.7 mph53%29.83 "Hg1 mi
1:00 AM68 °FPassing clouds.8 mph53%29.86 "Hg1 mi
12:30 AM68 °FPassing clouds.6 mph53%29.86 "Hg1 mi
12:00 AM68 °FPassing clouds.7 mph53%29.86 "Hg1 mi
11:30 PM
Sat, Feb 28
70 °FPassing clouds.6 mph50%29.89 "Hg1 mi
11:00 PM70 °FPassing clouds.7 mph50%29.89 "Hg1 mi
10:30 PM72 °FPassing clouds.6 mph44%29.92 "Hg1 mi
10:00 PM72 °FPassing clouds.7 mph44%29.92 "Hg1 mi
9:30 PM72 °FPassing clouds.No wind41%29.95 "Hg1 mi
9:00 PM72 °FPassing clouds.3 mph41%29.95 "Hg1 mi
8:30 PM73 °FPassing clouds.5 mph36%29.92 "Hg2 mi
8:00 PM73 °FPassing clouds.6 mph33%29.92 "Hg2 mi
7:30 PM73 °FPassing clouds.6 mph31%29.92 "Hg2 mi
7:00 PM75 °FPassing clouds.6 mph29%29.89 "Hg2 mi
6:30 PM77 °FScattered clouds.6 mph26%29.89 "Hg2 mi
6:00 PM77 °FScattered clouds.7 mph26%29.89 "Hg2 mi
5:30 PM79 °FScattered clouds.10 mph24%29.89 "Hg2 mi
5:00 PM79 °FScattered clouds.9 mph23%29.89 "Hg2 mi
4:30 PM81 °FScattered clouds.9 mph21%29.89 "Hg2 mi
4:00 PM82 °FHaze.9 mph20%29.89 "Hg2 mi
Weather by CustomWeather, © 2015

See weather overviewHow to use our weather pages